Weather History for CYXH - March, 2014

Change the Weather History Date:

Friday, March 28, 2014

  Actual Average Record
Temperature  
Mean Temperature 24 °F -  
Max Temperature 33 °F 54 °F - ()
Min Temperature 14 °F 30 °F - ()
Degree Days  
Heating Degree Days 42    
Moisture  
Dew Point 16 °F    
Average Humidity 90    
Maximum Humidity 100    
Minimum Humidity 69    
Precipitation  
Precipitation 0.00 in 0.03 in - ()
Sea Level Pressure  
Sea Level Pressure 30.10 in    
Wind  
Wind Speed 7 mph ()    
Max Wind Speed 12 mph    
Max Gust Speed 18 mph    
Visibility 5.6 miles    
Events Snow    
T = Trace of Precipitation, MM = Missing Value Source: Averaged Metar Reports

Daily Weather History Graph

Daily Weather History Graph

Search for Another Location

Airport or City:

Trip Planner

Search our weather history database for the weather conditions in past years. The results will help you decide how hot, cold, wet, or windy it might be!

Date:

Astronomy

Mar. 28, 2014 Rise Set
Actual Time 7:07 AM MDT 7:48 PM MDT
Civil Twilight 6:35 AM MDT 8:21 PM MDT
Nautical Twilight 5:56 AM MDT 9:00 PM MDT
Astronomical Twilight 5:15 AM MDT 9:41 PM MDT
Moon 5:53 AM MDT (3/28) 5:39 PM MDT (3/28)
Length of Visible Light 13h 45m
Length of Day
12h 40m
Waning Crescent, 6% of the Moon is Illuminated
Mar 28
Waning Crescent
Mar 30
New
Apr 7
First Quarter
Apr 15
Full
Apr 22
Last Quarter

Hourly Weather History & Observations

Time (MDT) Temp. Windchill Dew Point Humidity Pressure Visibility Wind Dir Wind Speed Gust Speed Precip Events Conditions
12:00 AM 15.8 °F 6.1 °F 14.0 °F 93% 30.13 in 6.0 mi East 6.9 mph - N/A Snow Light Snow
12:02 AM 15.8 °F 5.1 °F 14.0 °F 93% 30.12 in 5.0 mi East 8.1 mph - N/A Snow Light Snow
12:06 AM 15.8 °F 5.1 °F 14.0 °F 93% 30.12 in 4.0 mi ENE 8.1 mph - N/A Snow Light Snow
12:14 AM 15.8 °F 5.1 °F 14.0 °F 93% 30.13 in 3.0 mi ENE 8.1 mph - N/A Snow Light Snow
12:29 AM 15.8 °F 7.2 °F 14.0 °F 93% 30.13 in 6.0 mi ENE 5.8 mph - N/A Snow Light Snow
1:00 AM 14.0 °F 5.1 °F 14.0 °F 100% 30.14 in 9.0 mi ENE 5.8 mph - N/A Snow Light Snow
1:18 AM 15.8 °F 6.1 °F 14.0 °F 93% 30.14 in 9.0 mi ENE 6.9 mph - N/A   Mostly Cloudy
2:00 AM 15.8 °F 6.1 °F 14.0 °F 93% 30.13 in 9.0 mi ENE 6.9 mph - N/A   Overcast
2:06 AM 15.8 °F 5.1 °F 14.0 °F 93% 30.13 in 9.0 mi ENE 8.1 mph - N/A Snow Light Snow
2:21 AM 15.8 °F 4.2 °F 14.0 °F 93% 30.13 in 9.0 mi ENE 9.2 mph - N/A   Overcast
2:23 AM 15.8 °F 4.2 °F 14.0 °F 93% 30.13 in 9.0 mi ENE 9.2 mph - N/A Snow Light Snow
2:45 AM 15.8 °F 3.4 °F 14.0 °F 93% 30.14 in 5.0 mi ENE 10.4 mph - N/A Snow Light Snow
2:55 AM 15.8 °F 4.2 °F 14.0 °F 93% 30.14 in 6.0 mi ENE 9.2 mph - N/A Snow Light Snow
3:00 AM 15.8 °F 5.1 °F 14.0 °F 93% 30.14 in 6.0 mi ENE 8.1 mph - N/A Snow Light Snow
3:09 AM 15.8 °F 6.1 °F 14.0 °F 93% 30.14 in 5.0 mi ENE 6.9 mph - N/A Snow Light Snow
3:21 AM 15.8 °F 7.2 °F 14.0 °F 93% 30.14 in 4.0 mi ENE 5.8 mph - N/A Snow Light Snow
3:28 AM 15.8 °F 6.1 °F 14.0 °F 93% 30.13 in 5.0 mi ENE 6.9 mph - N/A Snow Light Snow
3:30 AM 15.8 °F 5.1 °F 14.0 °F 93% 30.13 in 6.0 mi ENE 8.1 mph - N/A Snow Light Snow
4:00 AM 15.8 °F 6.1 °F 14.0 °F 93% 30.13 in 9.0 mi ENE 6.9 mph - N/A Snow Light Snow
4:29 AM 15.8 °F 6.1 °F 14.0 °F 93% 30.13 in 9.0 mi ENE 6.9 mph - N/A   Mostly Cloudy
4:59 AM 15.8 °F 5.1 °F 14.0 °F 93% 30.14 in 9.0 mi ENE 8.1 mph - N/A Snow Light Snow
5:00 AM 15.8 °F 6.1 °F 14.0 °F 93% 30.14 in 9.0 mi ENE 6.9 mph - N/A Snow Light Snow
5:11 AM 15.8 °F 5.1 °F 14.0 °F 93% 30.14 in 5.0 mi ENE 8.1 mph - N/A Snow Light Snow
5:18 AM 15.8 °F 6.1 °F 14.0 °F 93% 30.14 in 2.2 mi ENE 6.9 mph - N/A Snow Light Snow
5:19 AM 15.8 °F 6.1 °F 14.0 °F 93% 30.14 in 2.0 mi ENE 6.9 mph - N/A Snow Light Snow
5:20 AM 15.8 °F 6.1 °F 14.0 °F 93% 30.14 in 1.8 mi ENE 6.9 mph - N/A Snow Light Snow
5:36 AM 15.8 °F 6.1 °F 14.0 °F 93% 30.14 in 2.2 mi ENE 6.9 mph - N/A Snow Light Snow
5:52 AM 15.8 °F 6.1 °F 14.0 °F 93% 30.14 in 2.5 mi ENE 6.9 mph - N/A Snow Light Snow
5:53 AM 15.8 °F 6.1 °F 14.0 °F 93% 30.14 in 3.0 mi ENE 6.9 mph - N/A Snow Light Snow
6:00 AM 15.8 °F 6.1 °F 14.0 °F 93% 30.14 in 3.0 mi ENE 6.9 mph - N/A Snow Light Snow
6:05 AM 15.8 °F 7.2 °F 14.0 °F 93% 30.14 in 2.5 mi ENE 5.8 mph - N/A Snow Light Snow
6:24 AM 15.8 °F 6.1 °F 15.8 °F 100% 30.14 in 2.0 mi East 6.9 mph - N/A Snow Light Snow
6:31 AM 15.8 °F 5.1 °F 15.8 °F 100% 30.14 in 2.2 mi ENE 8.1 mph - N/A Snow Light Snow
6:35 AM 15.8 °F 5.1 °F 15.8 °F 100% 30.14 in 3.0 mi ENE 8.1 mph - N/A Snow Light Snow
6:45 AM 15.8 °F 6.1 °F 14.0 °F 93% 30.15 in 1.5 mi East 6.9 mph - N/A Snow Light Snow
7:00 AM 15.8 °F 5.1 °F 15.8 °F 100% 30.15 in 1.2 mi East 8.1 mph - N/A Snow Light Snow
7:08 AM 15.8 °F 6.1 °F 15.8 °F 100% 30.15 in 2.5 mi East 6.9 mph - N/A Snow Light Snow
7:20 AM 15.8 °F 6.1 °F 15.8 °F 100% 30.15 in 1.8 mi ENE 6.9 mph - N/A Snow Light Snow
7:41 AM 15.8 °F 6.1 °F 15.8 °F 100% 30.15 in 4.0 mi ENE 6.9 mph - N/A Snow Light Snow
8:00 AM 15.8 °F 6.1 °F 14.0 °F 93% 30.15 in 5.0 mi ENE 6.9 mph - N/A Snow Light Snow Showers
8:33 AM 17.6 °F 7.3 °F 15.8 °F 93% 30.15 in 15.0 mi East 8.1 mph - N/A   Mostly Cloudy
9:00 AM 19.4 °F 8.6 °F 15.8 °F 86% 30.15 in 30.0 mi East 9.2 mph - N/A   Overcast
10:00 AM 21.2 °F 14.9 °F 17.6 °F 86% 30.14 in 30.0 mi ESE 4.6 mph - N/A   Overcast
11:00 AM 23.0 °F 17.0 °F 17.6 °F 80% 30.13 in 30.0 mi East 4.6 mph - N/A   Overcast
12:00 PM 24.8 °F 20.5 °F 17.6 °F 74% 30.12 in 30.0 mi South 3.5 mph - N/A   Overcast
1:00 PM 26.6 °F 20.0 °F 19.4 °F 74% 30.10 in 30.0 mi SE 5.8 mph - N/A   Overcast
2:00 PM 30.2 °F 26.7 °F 21.2 °F 69% 30.07 in 30.0 mi ESE 3.5 mph - N/A   Overcast
3:00 PM 32.0 °F 23.0 °F 23.0 °F 69% 30.04 in 30.0 mi South 11.5 mph 18.4 mph N/A   Mostly Cloudy
4:00 PM 32.0 °F 24.8 °F 23.0 °F 69% 30.03 in 30.0 mi SSE 8.1 mph - N/A   Mostly Cloudy
5:00 PM 33.8 °F 26.4 °F 26.6 °F 75% 29.99 in 30.0 mi SSW 9.2 mph - N/A   Overcast
6:00 PM 33.8 °F 28.6 °F 24.8 °F 70% 29.97 in 30.0 mi SE 5.8 mph - N/A   Mostly Cloudy
7:00 PM 32.0 °F 26.4 °F 26.6 °F 80% 29.94 in 30.0 mi SSE 5.8 mph - N/A   Mostly Cloudy
8:00 PM 30.2 °F 22.6 °F 23.0 °F 75% 29.90 in 30.0 mi East 8.1 mph - N/A   Overcast
9:00 PM 28.4 °F 22.2 °F 23.0 °F 80% 29.88 in 15.0 mi East 5.8 mph - N/A   Clear
10:00 PM 28.4 °F 22.2 °F 24.8 °F 86% 29.84 in 9.0 mi East 5.8 mph - N/A   Scattered Clouds
11:00 PM 26.6 °F 21.2 °F 24.8 °F 93% 29.81 in 9.0 mi NE 4.6 mph - N/A   Scattered Clouds